Showing default

COSMOS 1914, 18793

Orbit data source: Space-Track

COSMOS 1914, 18793 is a payload satellite owned by UNKS (CIS) in LEO that was launched on Fri, 15 Jan 1988 UTC via a TSIKLON-3 launch vehicle from the Plesetsk Missile And Space Complex (PKMTR). Payload-class satellites include a variety of spacecraft equipped with specific instruments for various scientific and technological missions. These include communications satellites like Starlink; space stations such as the ISS; scientific satellites like the Hubble; Earth observation satellites from companies like Planet Labs, Umbra, and HawkEye 360; GPS; miniature CubeSats for education and research; and military/defense satellites.

Loading next visibility...
Identifier
18793, 1988-002F
Orbit
LEO
Last TLE update
3 hours ago
Origin
Manufacturer
NPO PM
Mission
Defense Communications
Bus & Motor
STRELA-3, Unknown motor
Mass
225 kg wet, 225 kg dry
Launch date (UTC)
1988-01-15 (37 years ago)
Launch vehicle
TSIKLON-3
Launch site
Plesetsk Missile And Space Complex (PKMTR)
Object type
Payload
Rocket body
Debris
Shape & HBR
Cyl, 1.6 m
Radar Cross Section
1.257 m², Large (>1 m²)

Expand to show TLE details & history

TLE from 3 hours ago
0 COSMOS 1914
1 18793U 88002F   25189.18787002  .00000025  00000-0  75291-4 0  9999
2 18793  82.6058  73.1851 0018383  77.1978  37.6438 12.66449326732507
Epoch: 2025-07-08T04:30Z
TLE epoch observation values (Epoch: 2025-07-08T04:30:31.969Z)
Latitude
64.10797°
Longitude
-116.26276°
Altitude
1,396.142 km
Speed
7.173 km/s
True Right ascension
15h 51m 01s
True Declination
63° 59' 01"
Sunlit
Object was in daylight at epoch
Visualization orbit readout
Latitude
-82.62096°
Longitude
-6.57711°
Altitude
1,438.735 km
Speed
7.136 km/s
Apparent Right ascension
06h 34m 52s
Apparent Declination
-69° 22' 15"
Sunlit
Object is in daylight
Visualization observer readout
Local Sidereal Time
19:19:02
Azimuth
172.253° S
Elevation
-59.968°
Doppler factor
1
Orbital elements
Apogee altitude
1,408.038 km
Perigee altitude
1,379.464 km
Semi-major axis
7,771.888 km
Eccentricity
0.00184
Inclination
82.6058°
RAAN
73.1851°
Arg. of periapsis
77.1978°
True anomaly
Unknown
Mean anomaly
37.6438°
Eccentric anomaly
Unknown
Mean motion
3.16777 °/min
Orbital period
113.64 mins
BSTAR
0.000075291
Loading maneuver chart data...
Loading SW <> Apogee altitude chart data...
Loading historical data...
Loading historical data...
Loading historical data...
Loading historical data...
Loading historical data...
Loading historical data...
Loading historical data...

COSMOS 1914 Visibility forecast

Observer location: undefined°, undefined°

Span
Click to sort rows by Start time (UTC) header in descending order
Start Az.
Max El. time (UTC)
Max El. Az.
Max El.
End time (UTC)
End Az.
10 mins2025-07-08 15:24:30.990Z121.971° SE2025-07-08 15:29:30.990Z82.582° E19.407°2025-07-08 15:34:30.990Z41.207° NE
15 mins2025-07-08 17:16:30.990Z194.331° SSW2025-07-08 17:23:30.990Z282.322° WNW44.006°2025-07-08 17:31:30.990Z4.343° NNE
5 mins2025-07-08 19:17:30.990Z283.481° WNW2025-07-08 19:19:30.990Z299.011° NW13.273°2025-07-08 19:22:30.990Z321.904° NNW
14 mins2025-07-09 03:16:30.990Z9.583° NNE2025-07-09 03:22:30.990Z68.97° E34.357°2025-07-09 03:30:30.990Z144.61° SSE
13 mins2025-07-09 05:11:30.990Z331.169° NNW2025-07-09 05:17:30.990Z270.195° WNW31.554°2025-07-09 05:24:30.990Z210.293° SW
|